Date_and_time,latitude,longitude,wind_speed,RelWindDirFrom,WindDirFrom,air_pressure,air_temperature,relative_humidity,Temp,platform_speed_wrt_ground,air_pressure_at_mean_sea_level,platform_orientation
2018-08-06 23:30,50.6304616666667,-96.98077,7.8,10.5,134,988.21,20.6,57,21.45,0.0,1014.21,270.0
2018-08-06 23:40,50.6304533333333,-96.9807766666667,7.2,9.4,136,988.15,20.6,57,21.37,0.0,1014.14,270.0
2018-08-06 23:50,50.63045,-96.980765,5.8,8.6,147,988.21,20.5,56,21.35,0.0,1014.20,270.0
2018-08-07 00:00,50.6304516666667,-96.9807683333333,6.1,7.6,126,988.11,21.2,56,21.46,0.0,1014.05,61.7
2018-08-07 00:10,50.630445,-96.98076,4.4,6.5,140,988.01,21.1,54,21.42,0.0,1013.95,61.7
2018-08-07 00:20,50.630455,-96.9807733333333,3.4,4.8,177,987.93,21.1,54,21.32,0.0,1013.86,61.7
2018-08-07 00:30,50.6304583333333,-96.9807716666667,4.9,6.7,188,987.87,21.3,55,21.25,0.0,1013.77,61.7
2018-08-07 00:40,50.630455,-96.9807666666667,4.6,6.1,183,987.85,21.3,55,21.24,0.0,1013.75,61.7
2018-08-07 00:50,50.6304583333333,-96.9807683333333,4.1,5.4,178,987.87,21.3,56,21.17,0.0,1013.76,61.7
2018-08-07 01:00,50.630455,-96.9807683333333,4.6,5.7,170,987.79,21.1,58,21.28,0.0,1013.67,270.0
2018-08-07 01:10,50.6304533333333,-96.9807666666667,6.0,7.5,172,987.74,20.9,59,21.31,0.0,1013.62,270.0
2018-08-07 01:20,50.630445,-96.9807566666667,7.1,8.5,174,987.68,20.8,58,21.35,0.0,1013.56,270.0
2018-08-07 01:30,50.63046,-96.9807666666667,8.3,9.6,175,987.57,20.5,58,21.45,0.0,1013.45,270.0
2018-08-07 01:40,50.6304333333333,-96.980765,7.5,9.4,176,987.54,20.2,59,21.41,0.0,1013.44,270.0
2018-08-07 01:50,50.6304416666667,-96.980775,6.4,7.8,172,987.53,20.0,62,21.56,0.0,1013.41,270.0
2018-08-07 02:00,50.6304583333333,-96.9807833333333,7.8,9.7,169,987.54,20.0,62,21.57,0.0,1013.43,66.4
2018-08-07 02:10,50.6304483333333,-96.9807733333333,8.2,11.1,165,987.55,20.1,63,21.54,0.0,1013.42,66.4
2018-08-07 02:20,50.6304483333333,-96.980775,9.1,12.5,160,987.49,20.2,62,21.48,0.0,1013.35,66.4
2018-08-07 02:30,50.63045,-96.9807733333333,10.1,12.3,153,987.39,20.2,63,21.46,0.0,1013.26,66.4
2018-08-07 02:40,50.63045,-96.9807716666667,10.6,12.6,149,987.33,20.1,62,21.53,0.0,1013.19,66.4
2018-08-07 02:50,50.6304516666667,-96.98077,10.6,13.4,151,987.26,20.1,63,21.62,0.0,1013.13,66.4
2018-08-07 03:00,50.6304516666667,-96.9807716666667,10.4,13.1,152,987.27,20.1,64,21.68,0.0,1013.16,270.0
2018-08-07 03:10,50.6304516666667,-96.98077,10.5,13.1,153,987.28,20.0,63,21.71,0.0,1013.17,270.0
2018-08-07 03:20,50.6304516666667,-96.9807683333333,10.8,12.9,154,987.24,20.0,64,21.72,0.0,1013.14,270.0
2018-08-07 03:30,50.6304566666667,-96.9807683333333,11.2,16.1,155,987.14,20.0,63,21.69,0.0,1013.05,270.0
2018-08-07 03:40,50.6304533333333,-96.9807683333333,11.4,14.5,155,987.09,19.9,63,21.68,0.0,1013.01,270.0
2018-08-07 03:50,50.630455,-96.9807616666667,12.1,16.0,159,987.05,19.8,65,21.65,0.0,1012.98,270.0
2018-08-07 04:00,50.630455,-96.9807616666667,12.5,15.6,168,987.01,19.6,68,21.69,0.0,1012.94,90.0
2018-08-07 04:10,50.6304433333333,-96.9807583333333,10.9,14.4,176,986.99,19.3,70,21.75,0.0,1012.93,90.0
2018-08-07 04:20,50.6304566666667,-96.9807583333333,9.6,11.6,180,986.98,18.7,69,21.75,0.0,1012.95,90.0
2018-08-07 04:30,50.6304533333333,-96.9807583333333,9.8,12.3,176,986.89,18.3,68,21.75,0.0,1012.87,90.0
2018-08-07 04:40,50.630445,-96.9807616666667,10.7,13.4,177,986.75,18.2,68,21.73,0.0,1012.73,90.0
2018-08-07 04:50,50.6304483333333,-96.9807566666667,11.1,13.2,176,986.59,18.1,68,21.73,0.0,1012.58,90.0
2018-08-07 05:00,50.6304483333333,-96.9807566666667,10.7,13.1,179,986.46,17.9,69,21.71,0.0,1012.46,122.3
2018-08-07 05:10,50.63045,-96.9807583333333,11.0,14.4,179,986.35,17.7,69,21.69,0.0,1012.36,122.3
2018-08-07 05:20,50.6304516666667,-96.9807583333333,10.8,13.1,178,986.20,17.5,69,21.67,0.0,1012.21,122.3
2018-08-07 05:30,50.630455,-96.980765,11.0,13.3,177,986.10,17.1,70,21.65,0.0,1012.12,122.3
2018-08-07 05:40,50.63045,-96.9807616666667,12.0,15.6,176,986.08,17.0,70,21.63,0.0,1012.12,122.3
2018-08-07 05:50,50.6304516666667,-96.9807616666667,12.5,14.7,174,986.05,16.9,70,21.62,0.0,1012.09,122.3
2018-08-07 06:00,50.63045,-96.9807633333333,10.6,12.8,177,986.00,16.8,72,21.60,0.0,1012.07,90.0
2018-08-07 06:10,50.6304516666667,-96.9807616666667,8.3,10.5,182,985.89,16.7,73,21.59,0.0,1011.99,90.0
2018-08-07 06:20,50.63045,-96.9807616666667,9.1,11.3,187,985.73,16.7,73,21.57,0.0,1011.84,90.0
2018-08-07 06:30,50.6304483333333,-96.98076,8.2,10.9,195,985.70,16.7,74,21.55,0.0,1011.81,90.0
2018-08-07 06:40,50.6304483333333,-96.98076,9.3,14.2,195,985.69,16.4,76,21.53,0.0,1011.82,90.0
2018-08-07 06:50,50.6304483333333,-96.9807616666667,10.4,13.4,192,985.60,16.2,78,21.51,0.0,1011.75,90.0
2018-08-07 07:00,50.6304483333333,-96.9807616666667,10.1,13.1,191,985.48,16.2,78,21.49,0.0,1011.63,142.0
2018-08-07 07:10,50.6304483333333,-96.9807616666667,9.7,14.4,194,985.43,16.2,79,21.48,0.0,1011.59,142.0
2018-08-07 07:20,50.6304483333333,-96.9807616666667,10.9,14.9,194,985.42,16.3,78,21.46,0.0,1011.60,142.0
2018-08-07 07:30,50.6304633333333,-96.9807683333333,11.1,15.7,197,985.41,16.5,76,21.45,0.0,1011.58,142.0
2018-08-07 07:40,50.6304583333333,-96.980765,11.8,16.3,196,985.36,16.7,75,21.44,0.0,1011.52,142.0
2018-08-07 07:50,50.6304566666667,-96.980765,12.5,16.3,197,985.33,16.7,75,21.42,0.0,1011.50,142.0
2018-08-07 08:00,50.6304566666667,-96.9807633333333,11.5,15.6,199,985.23,16.7,75,21.41,0.0,1011.41,311.7
2018-08-07 08:10,50.6304566666667,-96.980765,10.8,14.9,196,985.13,16.7,77,21.40,0.0,1011.30,311.7
2018-08-07 08:20,50.6304666666667,-96.9807566666667,11.0,14.4,199,985.02,16.6,77,21.38,0.0,1011.19,311.7
2018-08-07 08:30,50.6304616666667,-96.98077,11.6,15.9,200,984.89,16.5,78,21.37,0.0,1011.07,311.7
2018-08-07 08:40,50.6304616666667,-96.98077,11.2,14.8,203,984.79,16.5,78,21.36,0.0,1010.98,311.7
2018-08-07 08:50,50.6304616666667,-96.980765,9.8,12.9,205,984.73,16.3,80,21.35,0.0,1010.92,311.7
2018-08-07 09:00,50.6304583333333,-96.9807633333333,9.5,12.8,208,984.55,16.1,81,21.34,0.0,1010.74,38.0
2018-08-07 09:10,50.63043,-96.98076,9.5,12.9,210,984.42,15.9,84,21.32,0.0,1010.63,38.0
2018-08-07 09:20,50.6304633333333,-96.9807566666667,10.0,12.5,207,984.38,15.6,86,21.30,0.0,1010.59,38.0
2018-08-07 09:30,50.6304666666667,-96.9807616666667,9.5,12.4,210,984.33,15.5,88,21.30,0.0,1010.53,38.0
2018-08-07 09:40,50.630465,-96.980765,9.8,12.5,209,984.29,15.3,89,21.29,0.0,1010.50,38.0
2018-08-07 09:50,50.6304633333333,-96.980765,9.2,11.3,206,984.27,15.4,90,21.28,0.0,1010.48,38.0
2018-08-07 10:00,50.6304616666667,-96.9807633333333,9.0,11.7,208,984.24,15.4,91,21.26,0.0,1010.45,360.0
2018-08-07 10:10,50.6304616666667,-96.9807616666667,9.1,12.3,208,984.16,15.3,91,21.25,0.0,1010.37,360.0
2018-08-07 10:20,50.6304616666667,-96.9807616666667,9.2,12.8,210,984.08,15.2,93,21.25,0.0,1010.29,360.0
2018-08-07 10:30,50.6304616666667,-96.9807616666667,9.8,12.5,206,983.97,15.2,94,21.24,0.0,1010.19,360.0
2018-08-07 10:40,50.6304616666667,-96.98076,9.9,14.3,206,983.89,15.2,94,21.23,0.0,1010.11,360.0
2018-08-07 10:50,50.63046,-96.9807616666667,9.8,12.8,207,983.82,15.2,95,21.21,0.0,1010.05,360.0
2018-08-07 11:00,50.63046,-96.9807616666667,10.0,13.2,209,983.81,15.2,95,21.20,0.0,1010.05,12.6
2018-08-07 11:10,50.63046,-96.9807616666667,10.4,13.7,209,983.80,15.0,95,21.19,0.0,1010.06,12.6
2018-08-07 11:20,50.63046,-96.9807616666667,10.1,13.2,211,983.80,14.9,97,21.16,0.0,1010.07,12.6
2018-08-07 11:30,50.63046,-96.9807633333333,10.5,14.8,210,983.74,14.8,97,21.14,0.0,1010.01,12.6
2018-08-07 11:40,50.6304383333333,-96.98076,9.9,13.4,211,983.70,14.8,97,21.12,0.0,1009.97,12.6
2018-08-07 11:50,50.630455,-96.9807516666667,10.4,13.7,209,983.67,14.8,97,21.10,0.0,1009.95,12.6
2018-08-07 12:00,50.630455,-96.9807516666667,10.4,13.4,209,983.61,14.9,97,21.09,0.0,1009.88,125.3
2018-08-07 12:10,50.6304516666667,-96.9807533333333,9.9,13.6,212,983.56,15.1,96,21.07,0.0,1009.82,125.3
2018-08-07 12:20,50.6304533333333,-96.980755,9.5,12.0,210,983.53,15.3,95,21.05,0.0,1009.79,125.3
2018-08-07 12:30,50.6304533333333,-96.980755,10.0,12.7,209,983.58,15.5,95,21.03,0.0,1009.84,125.3
2018-08-07 12:40,50.6304533333333,-96.9807566666667,10.7,13.9,209,983.59,15.6,94,21.00,0.0,1009.83,125.3
2018-08-07 12:50,50.6304533333333,-96.9807566666667,10.3,13.1,208,983.54,15.8,93,21.00,0.0,1009.78,125.3
2018-08-07 13:00,50.6304533333333,-96.9807566666667,10.3,13.6,211,983.52,16.0,92,20.98,0.0,1009.75,360.0
2018-08-07 13:10,50.6304533333333,-96.9807583333333,10.3,14.7,212,983.50,16.5,90,20.95,0.0,1009.72,360.0
2018-08-07 13:20,50.6304533333333,-96.9807583333333,10.2,13.6,217,983.52,17.0,88,20.94,0.0,1009.71,360.0
2018-08-07 13:30,50.6304533333333,-96.9807583333333,9.4,13.4,213,983.50,17.4,87,20.94,0.0,1009.68,360.0
2018-08-07 13:40,50.6304466666667,-96.98076,9.6,12.7,211,983.50,17.8,85,20.95,0.0,1009.66,360.0
2018-08-07 13:50,50.6299416666667,-96.9807383333333,9.8,14.0,216,983.43,18.3,83,20.95,0.2,1009.56,360.0
2018-08-07 14:00,50.6395,-96.9670683333333,5.8,16.2,227,983.37,19.3,79,20.68,4.6,1009.44,43.8
2018-08-07 14:10,50.6654833333333,-96.9415066666667,2.3,4.9,282,983.38,19.5,78,20.29,11.0,1009.44,43.8
2018-08-07 14:20,50.69164,-96.9156633333333,0.3,3.2,118,983.44,20.3,77,20.37,11.1,1009.45,43.8
2018-08-07 14:30,50.71825,-96.8908816666667,0.5,2.4,284,983.35,20.7,76,20.46,11.1,1009.34,43.8
2018-08-07 14:40,50.744985,-96.8659833333333,1.8,3.1,261,983.16,20.5,78,20.50,11.2,1009.15,43.8
2018-08-07 14:50,50.7717916666667,-96.8414983333333,0.3,2.8,225,983.07,21.1,77,20.51,11.1,1009.02,43.8
2018-08-07 15:00,50.7980316666667,-96.8157216666667,2.1,4.5,126,982.93,21.2,84,20.51,11.1,1008.85,31.9
2018-08-07 15:10,50.818405,-96.79617,4.2,10.3,187,982.75,21.9,78,20.49,8.6,1008.60,31.9
2018-08-07 15:20,50.8251483333333,-96.7892633333333,9.6,11.3,208,982.56,25.9,59,20.50,2.9,1008.21,31.9
2018-08-07 15:30,50.83176,-96.7832083333333,9.5,10.8,206,982.45,24.5,68,20.49,2.7,1008.14,31.9
2018-08-07 15:40,50.8384133333333,-96.776825,9.5,11.5,209,982.38,25.1,64,20.52,2.8,1008.03,31.9
2018-08-07 15:50,50.8461716666667,-96.76921,9.4,12.8,201,982.31,24.2,69,20.53,3.3,1007.95,31.9
2018-08-07 16:00,50.84643,-96.7691566666667,12.3,14.2,193,981.97,21.8,84,20.53,0.1,1007.70,31.7
2018-08-07 16:10,50.8464433333333,-96.7691933333333,11.8,13.4,190,982.00,21.1,87,20.54,0.0,1007.72,31.7
2018-08-07 16:20,50.8464466666667,-96.7692466666667,11.5,13.4,187,982.03,21.2,87,20.55,0.0,1007.74,31.7
2018-08-07 16:30,50.846445,-96.7692383333333,11.8,14.0,183,981.96,21.1,88,20.57,0.0,1007.68,31.7
2018-08-07 16:40,50.84644,-96.7691916666667,13.0,15.2,185,981.81,21.3,86,20.61,0.0,1007.49,31.7
2018-08-07 16:50,50.846435,-96.7690983333333,13.4,15.6,183,981.71,21.4,86,20.62,0.0,1007.38,31.7
2018-08-07 17:00,50.84643,-96.7692033333333,14.2,16.6,179,981.61,21.5,86,20.63,0.0,1007.24,31.1
2018-08-07 17:10,50.8461933333333,-96.7691833333333,14.7,17.9,182,981.53,21.5,87,20.64,0.1,1006.98,31.1
2018-08-07 17:20,50.8693633333333,-96.74411,8.4,18.6,159,981.87,21.9,86,20.66,10.1,1007.37,31.1
2018-08-07 17:30,50.895495,-96.7167983333333,7.2,10.1,157,981.82,21.9,87,20.61,11.3,1007.30,31.1
2018-08-07 17:40,50.9214883333333,-96.6892783333333,7.7,10.3,155,981.69,22.0,87,20.57,11.3,1007.20,31.1
2018-08-07 17:50,50.94731,-96.6617433333333,8.0,12.4,150,981.57,22.0,87,20.63,11.2,1007.18,31.1
2018-08-07 18:00,50.973275,-96.63465,7.4,10.2,156,981.52,22.1,86,20.67,11.2,1007.16,33.0
2018-08-07 18:10,50.9925866666667,-96.6138633333333,9.1,14.0,172,981.41,22.8,80,20.65,8.4,1007.01,33.0
2018-08-07 18:20,50.9994483333333,-96.6071,14.2,16.9,190,981.26,25.6,65,20.66,2.9,1006.73,33.0
2018-08-07 18:30,51.005855,-96.6006616666667,15.2,17.4,189,981.13,25.5,67,20.67,2.7,1006.60,33.0
2018-08-07 18:40,51.01191,-96.5933766666667,14.7,16.7,189,981.03,25.7,65,20.68,2.7,1006.48,33.0
2018-08-07 18:50,51.02105,-96.584125,13.1,16.3,184,980.95,25.6,67,20.68,3.9,1006.40,33.0
2018-08-07 19:00,51.0225133333333,-96.5829583333333,17.2,20.6,189,980.56,24.0,73,20.69,0.6,1006.07,33.6
2018-08-07 19:10,51.022535,-96.5831116666667,17.0,19.8,190,980.38,22.6,79,20.69,0.0,1005.93,33.6
2018-08-07 19:20,51.02253,-96.5829666666667,17.1,20.3,191,980.21,22.8,78,20.67,0.0,1005.75,33.6
2018-08-07 19:30,51.02255,-96.5830733333333,17.2,19.6,192,980.11,22.9,78,20.66,0.0,1005.64,33.6
2018-08-07 19:40,51.022515,-96.58404,17.1,19.8,190,980.02,22.9,77,20.66,0.2,1005.54,33.6
2018-08-07 19:50,51.0496283333333,-96.5690733333333,7.0,15.3,178,980.40,24.4,70,20.69,10.3,1005.86,33.6
2018-08-07 20:00,51.0780883333333,-96.550255,5.5,8.5,171,980.37,24.8,69,20.67,11.1,1005.78,30.7
2018-08-07 20:10,51.1058616666667,-96.5299716666667,6.4,8.8,168,980.20,24.7,69,20.66,11.0,1005.49,30.7
2018-08-07 20:20,51.12088,-96.4908033333333,12.9,15.5,151,979.97,23.7,75,20.75,10.4,1005.30,30.7
2018-08-07 20:30,51.1279716666667,-96.4692716666667,13.1,16.1,174,979.94,23.7,74,20.96,5.5,1005.27,30.7
2018-08-07 20:40,51.1316633333333,-96.46051,13.4,16.1,186,979.83,24.4,71,21.05,2.4,1005.13,30.7
2018-08-07 20:50,51.1352483333333,-96.4515183333333,13.3,15.3,184,979.78,24.3,72,21.03,2.4,1005.15,30.7
2018-08-07 21:00,51.138725,-96.441925,13.1,15.3,182,979.65,24.2,72,20.99,2.5,1005.08,36.1
2018-08-07 21:10,51.1415716666667,-96.4212833333333,15.3,18.5,173,979.40,24.3,65,21.00,4.8,1004.81,36.1
2018-08-07 21:20,51.14178,-96.421325,15.7,18.5,190,979.10,25.3,57,21.09,0.1,1004.45,36.1
2018-08-07 21:30,51.1413166666667,-96.4247833333333,16.2,22.5,192,979.09,25.6,54,21.14,0.8,1004.43,36.1
2018-08-07 21:40,51.1606783333333,-96.4261833333333,9.3,16.6,195,979.46,24.8,63,21.07,7.0,1004.78,36.1
2018-08-07 21:50,51.1785016666667,-96.3902516666667,10.6,15.1,156,979.27,25.2,56,21.00,10.3,1004.55,36.1
2018-08-07 22:00,51.1815516666667,-96.3840116666667,12.8,17.3,192,979.03,26.8,48,21.00,1.8,1004.24,38.1
2018-08-07 22:10,51.181485,-96.383665,14.6,18.0,191,979.03,26.7,45,20.98,0.1,1004.28,38.1
2018-08-07 22:20,51.1815766666667,-96.3838683333333,14.7,16.7,195,978.59,26.5,47,21.03,0.1,1003.85,38.1
2018-08-07 22:30,51.181575,-96.3838883333333,14.2,16.6,196,978.52,26.4,46,21.07,0.0,1003.75,38.1
2018-08-07 22:40,51.181555,-96.383805,13.9,16.5,196,978.39,26.5,46,21.11,0.0,1003.61,38.1
2018-08-07 22:50,51.18154,-96.3837716666667,13.5,15.2,193,978.31,26.4,45,21.12,0.0,1003.54,38.1
2018-08-07 23:00,51.18156,-96.383775,12.8,15.8,191,978.28,26.8,42,21.12,0.0,1003.49,45.2
2018-08-07 23:10,51.1814066666667,-96.3842166666667,13.3,15.7,191,978.30,26.9,42,21.12,0.1,1003.46,45.2
2018-08-07 23:20,51.181565,-96.3838616666667,14.7,17.1,196,978.23,26.5,44,21.07,0.1,1003.39,45.2
2018-08-07 23:30,51.1715183333333,-96.4075116666667,19.1,25.7,208,977.64,26.2,47,21.17,6.4,1002.83,45.2
2018-08-07 23:40,51.1595316666667,-96.4526533333333,20.7,23.5,219,977.60,24.7,59,21.07,11.1,1002.84,45.2
